Regional Weather Roundup
Issued by NWS

Home | Current Version | Previous Version | Graphics & Text | Print | Product List | Glossary On
Versions: 1 2 3 4 5 6 7 8 9 10 11 12 13 14 15 16 17 18 19 20 21 22 23 24 25 26 27 28 29 30 31 32 33 34 35 36 37 38 39 40 41 42 43 44 45 46 47 48 49 50
727
ASUS43 KBIS 201302
RWRND

NORTH DAKOTA REGIONAL WEATHER ROUNDUP
NATIONAL WEATHER SERVICE BISMARCK ND
700 AM CST MON FEB 20 2017

NOTE: "FAIR" INDICATES FEW OR NO CLOUDS BELOW 12,000 FEET WITH NO
SIGNIFICANT WEATHER AND/OR OBSTRUCTIONS TO VISIBILITY.


NDZ001>003-009>011-017-201400-
NORTHWEST NORTH DAKOTA

CITY           SKY/WX    TMP DP  RH WIND       PRES   REMARKS
WILLISTON      FAIR      33  31  92 S3        29.71R
MINOT          CLOUDY    35  33  92 W10       29.66R FOG
MINOT AFB      CLOUDY    33  32  97 NW10      29.65R FOG
$$

NDZ018>021-031>035-040>046-201400-
SOUTHWEST NORTH DAKOTA

CITY           SKY/WX    TMP DP  RH WIND       PRES   REMARKS
BISMARCK       LGT RAIN  38  35  89 NW13      29.67R
DICKINSON      CLOUDY    36  33  89 W13       29.69R
GARRISON         N/A     34  32  92 NW7       29.67R
HETTINGER ARPT LGT RAIN  39  34  82 NW12      29.74R
$$

NDZ004>008-012>016-024-026-027-054-201400-
NORTHEAST NORTH DAKOTA

CITY           SKY/WX    TMP DP  RH WIND       PRES   REMARKS
GRAND FORKS    FOG       38  35  89 SW5       29.60R VSB 1/2
GRND FRKS AFB  CLOUDY    38  38  99 S6        29.61R FOG
DEVILS LAKE    MOCLDY    34  34 100 N9        29.58S
$$

NDZ022-023-025-028>030-036>039-047>053-201400-
SOUTHEAST NORTH DAKOTA

CITY           SKY/WX    TMP DP  RH WIND       PRES   REMARKS
FARGO          CLOUDY    51  48  89 SE14      29.62R
JAMESTOWN      MOCLDY    36  36 100 NE8       29.55F
$$





USA.gov is the U.S. government's official web portal to all federal, state and local government web resources and services.